Location: Unspecified
(42.3650°N, 71.1030°W)
Time: 16:13:40
(UTC+00:00)

Transit 4A - Pass Details

Date: 04 July 2024
Orbit: 870 x 973 km, 66.8° (Epoch: 17 July)

Event Time Altitude Azimuth Distance (km) Brightness Sun altitude
Rises 06:54:03 0° 338° (NNW) 3,493 11.5 -18.7°
Reaches altitude 10° 06:58:04 10° 5° (N) 2,569 11.2 -18.3°
Maximum altitude 07:00:53 13° 33° (NNE) 2,342 11.2 -18.1°
Drops below altitude 10° 07:03:43 10° 62° (ENE) 2,597 11.2 -17.8°
Sets 07:07:48 0° 88° (E) 3,561 11.5 -17.4°
